Eelde, Netherlands

2:56 PM CEST on August 17, 2017 (GMT +0200)
Eelde

Weather History for EHGG - July, 2013

Change the Weather History Date:

Tuesday, July 23, 2013

  Actual Average Record
Temperature  
Mean Temperature 75 °F -  
Max Temperature 89 °F 70 °F 89 °F (2013)
Min Temperature 61 °F 51 °F 48 °F (2007)
Cooling Degree Days 10    
Growing Degree Days 25 (Base 50)    
Moisture  
Dew Point 61 °F    
Average Humidity 62    
Maximum Humidity 94    
Minimum Humidity 28    
Precipitation  
Precipitation 0.00 in 0.09 in - ()
Sea Level Pressure  
Sea Level Pressure 29.93 in    
Wind  
Wind Speed 7 mph ()    
Max Wind Speed 15 mph    
Max Gust Speed -    
Visibility 7.0 miles    
Events      
Averages and records for this station are not official NWS values.
T = Trace of Precipitation, MM = Missing Value Source: Averaged Metar Reports

Daily Weather History Graph

Daily Weather History Graph

Search for Another Location

Airport or City:

Trip Planner

Search our weather history database for the weather conditions in past years. The results will help you decide how hot, cold, wet, or windy it might be!

Date:

Astronomy

Jul. 23, 2013 Rise Set
Actual Time 5:36 AM CEST 9:42 PM CEST
Civil Twilight 4:51 AM CEST 10:27 PM CEST
Nautical Twilight 3:44 AM CEST 11:33 PM CEST
Astronomical Twilight 2:12 AM CEST 1:07 AM CEST
Moon 9:37 PM CEST (7/23) 6:42 AM CEST (7/23)
Length of Visible Light 17h 36m
Length of Day
16h 05m
Full, 99% of the Moon is Illuminated
Jul 23
Full
Jul 29
Last Quarter
Aug 6
New
Aug 14
First Quarter
Aug 21
Full

Hourly Weather History & Observations

Time (CEST) Temp. Heat Index Dew Point Humidity Pressure Visibility Wind Dir Wind Speed Gust Speed Precip Events Conditions
12:25 AM 66.2 °F - 60.8 °F 83% 29.98 in 6.2 mi ENE 5.8 mph - N/A   Unknown
12:55 AM 64.4 °F - 60.8 °F 88% 29.98 in 6.2 mi ENE 6.9 mph - N/A   Unknown
1:25 AM 66.2 °F - 60.8 °F 83% 29.98 in 6.2 mi ENE 6.9 mph - N/A   Unknown
1:55 AM 66.2 °F - 60.8 °F 83% 29.98 in 6.2 mi ENE 6.9 mph - N/A   Unknown
2:00 AM 66 °F - 61 °F 78% 29.99 in 22 mi ENE 6.7 mph - -   Partly Cloudy
2:25 AM 66.2 °F - 60.8 °F 83% 29.98 in 6.2 mi NE 5.8 mph - N/A   Unknown
2:55 AM 64.4 °F - 60.8 °F 88% 29.98 in 6.2 mi ENE 5.8 mph - N/A   Unknown
3:25 AM 62.6 °F - 59.0 °F 88% 29.95 in 6.2 mi NE 6.9 mph - N/A   Unknown
3:55 AM 62.6 °F - 59.0 °F 88% 29.95 in 6.2 mi NE 5.8 mph - N/A   Unknown
4:25 AM 62.6 °F - 59.0 °F 88% 29.95 in 6.2 mi NE 5.8 mph - N/A   Unknown
4:55 AM 64.4 °F - 60.8 °F 88% 29.95 in 6.2 mi ENE 5.8 mph - N/A   Unknown
5:00 AM 64 °F - 61 °F 85% 29.96 in 13 mi ENE 6.7 mph - -   Overcast
5:25 AM 62.6 °F - 60.8 °F 94% 29.95 in 6.2 mi ENE 6.9 mph - N/A   Unknown
5:55 AM 62.6 °F - 60.8 °F 94% 29.95 in 6.2 mi ENE 8.1 mph - N/A   Unknown
6:25 AM 62.6 °F - 60.8 °F 94% 29.95 in 6.2 mi ENE 6.9 mph - N/A   Unknown
6:55 AM 64.4 °F - 62.6 °F 94% 29.95 in 6.2 mi ENE 6.9 mph - N/A   Unknown
7:25 AM 66.2 °F - 62.6 °F 88% 29.95 in 6.2 mi ENE 8.1 mph - N/A   Unknown
7:55 AM 68.0 °F - 62.6 °F 83% 29.95 in 6.2 mi ENE 8.1 mph - N/A   Unknown
8:00 AM 69 °F - 62 °F 72% 29.96 in 16 mi ENE 6.7 mph - -   Partly Cloudy
8:25 AM 71.6 °F - 60.8 °F 69% 29.95 in 6.2 mi East 8.1 mph - N/A   Unknown
8:55 AM 71.6 °F - 60.8 °F 69% 29.95 in 6.2 mi East 9.2 mph - N/A   Unknown
9:25 AM 73.4 °F - 60.8 °F 65% 29.95 in 6.2 mi East 9.2 mph - N/A   Unknown
9:55 AM 75.2 °F - 60.8 °F 61% 29.95 in 6.2 mi East 9.2 mph - N/A   Unknown
10:25 AM 77.0 °F - 60.8 °F 57% 29.95 in 6.2 mi East 10.4 mph - N/A   Unknown
10:55 AM 78.8 °F - 62.6 °F 57% 29.95 in 6.2 mi East 9.2 mph - N/A   Unknown
11:00 AM 80 °F - 62 °F 44% 29.95 in 16 mi East 8.9 mph - -   Scattered Clouds
11:25 AM 80.6 °F 81.5 °F 60.8 °F 51% 29.95 in 6.2 mi East 10.4 mph - N/A   Unknown
11:55 AM 80.6 °F 81.5 °F 60.8 °F 51% 29.95 in 6.2 mi East 9.2 mph - N/A   Unknown
12:25 PM 82.4 °F 82.9 °F 60.8 °F 48% 29.95 in 6.2 mi East 9.2 mph - N/A   Unknown
12:55 PM 86.0 °F 86.1 °F 60.8 °F 43% 29.92 in 6.2 mi East 10.4 mph - N/A   Unknown
1:25 PM 86.0 °F 86.1 °F 60.8 °F 43% 29.92 in 6.2 mi East 9.2 mph - N/A   Unknown
1:55 PM 86.0 °F 85.4 °F 59.0 °F 40% 29.92 in 6.2 mi ENE 10.4 mph - N/A   Unknown
2:00 PM 88 °F - 60 °F 28% 29.94 in 22 mi East 8.9 mph - -   Partly Cloudy
2:25 PM 87.8 °F 87.6 °F 60.8 °F 40% 29.92 in 6.2 mi East 8.1 mph - N/A   Unknown
2:55 PM 87.8 °F 86.5 °F 57.2 °F 35% 29.92 in 6.2 mi East 8.1 mph - N/A   Unknown
3:25 PM 89.6 °F 88.1 °F 57.2 °F 33% 29.92 in 6.2 mi East 6.9 mph - N/A   Unknown
3:55 PM 87.8 °F 86.5 °F 57.2 °F 35% 29.92 in 6.2 mi East 8.1 mph - N/A   Unknown
4:25 PM 87.8 °F 86.5 °F 57.2 °F 35% 29.89 in 6.2 mi ENE 10.4 mph - N/A   Unknown
4:55 PM 87.8 °F 87.1 °F 59.0 °F 38% 29.89 in 6.2 mi ENE 11.5 mph - N/A   Unknown
5:00 PM 87 °F - 62 °F 32% 29.91 in 22 mi NE 11.2 mph - -   Scattered Clouds
5:25 PM 87.8 °F 87.6 °F 60.8 °F 40% 29.89 in 6.2 mi NE 12.7 mph - N/A   Unknown
5:55 PM 87.8 °F 87.1 °F 59.0 °F 38% 29.89 in 6.2 mi ENE 12.7 mph - N/A   Unknown
6:25 PM 86.0 °F 86.1 °F 60.8 °F 43% 29.89 in 6.2 mi ENE 15.0 mph - N/A   Unknown
6:55 PM 86.0 °F 85.4 °F 59.0 °F 40% 29.89 in 6.2 mi ENE 12.7 mph - N/A   Unknown
7:25 PM 84.2 °F 85.0 °F 62.6 °F 48% 29.89 in 6.2 mi ENE 12.7 mph - N/A   Unknown
7:55 PM 82.4 °F 83.4 °F 62.6 °F 51% 29.89 in 6.2 mi ENE 11.5 mph - N/A   Unknown
8:00 PM 81 °F - 62 °F 43% 29.91 in 19 mi ENE 11.2 mph - -   Partly Cloudy
8:25 PM 80.6 °F 81.8 °F 62.6 °F 54% 29.89 in 6.2 mi ENE 10.4 mph - N/A   Unknown
8:55 PM 78.8 °F - 60.8 °F 54% 29.89 in 6.2 mi ENE 11.5 mph - N/A   Unknown
9:25 PM 77.0 °F - 60.8 °F 57% 29.89 in 6.2 mi ENE 10.4 mph - N/A   Unknown
9:55 PM 75.2 °F - 60.8 °F 61% 29.89 in 6.2 mi ENE 9.2 mph - N/A   Unknown
10:25 PM 71.6 °F - 60.8 °F 69% 29.89 in 6.2 mi ENE 6.9 mph - N/A   Unknown
10:55 PM 71.6 °F - 60.8 °F 69% 29.89 in 6.2 mi ENE 8.1 mph - N/A   Unknown
11:00 PM 72 °F - 60 °F 56% 29.91 in 25 mi ENE 8.9 mph - -   Mostly Cloudy
11:25 PM 71.6 °F - 59.0 °F 64% 29.89 in 6.2 mi ENE 8.1 mph - N/A   Unknown
11:55 PM 69.8 °F - 59.0 °F 68% 29.89 in 6.2 mi ENE 9.2 mph - N/A   Unknown